2023/06/20 00:00:00, 0.0,12.4
2023/06/20 00:10:00, 0.0,12.3
2023/06/20 00:20:00, 0.0,12.3
2023/06/20 00:30:00, 0.0,12.0
2023/06/20 00:40:00, 0.0,12.0
2023/06/20 00:50:00, 0.0,12.0
2023/06/20 01:00:00, 0.0,11.9
2023/06/20 01:10:00, 0.0,12.1
2023/06/20 01:20:00, 0.0,12.1
2023/06/20 01:30:00, 0.0,12.0
2023/06/20 01:40:00, 0.0,12.2
2023/06/20 01:50:00, 0.0,12.4
2023/06/20 02:00:00, 0.0,12.1
2023/06/20 02:10:00, 0.0,12.0
2023/06/20 02:20:00, 0.0,12.2
2023/06/20 02:30:00, 0.0,11.8
2023/06/20 02:40:00, 0.0,11.8
2023/06/20 02:50:00, 0.0,11.8
2023/06/20 03:00:00, 0.0,11.7
2023/06/20 03:10:00, 0.0,11.9
2023/06/20 03:20:00, 0.0,12.0
2023/06/20 03:30:00, 0.0,12.0
2023/06/20 03:40:00, 0.0,12.2
2023/06/20 03:50:00, 0.1,12.0
2023/06/20 04:00:00, 0.1,11.8
2023/06/20 04:10:00, 0.1,12.0
2023/06/20 04:20:00, 0.1,11.7
2023/06/20 04:30:00, 0.1,11.8
2023/06/20 04:40:00, 0.2,11.8
2023/06/20 04:50:00, 0.2,12.0
2023/06/20 05:00:00, 0.2,11.9
2023/06/20 05:10:00, 0.1,12.0
2023/06/20 05:20:00, 0.1,12.2
2023/06/20 05:30:00, 0.2,12.8
2023/06/20 05:40:00, 0.2,13.0
2023/06/20 05:50:00, 0.2,13.0
2023/06/20 06:00:00, 0.2,12.9
2023/06/20 06:10:00, 0.2,13.1
2023/06/20 06:20:00, 0.3,13.5
2023/06/20 06:30:00, 0.2,13.4
2023/06/20 06:40:00, 0.1,14.7
2023/06/20 06:50:00, 0.2,15.5
2023/06/20 07:00:00, 0.2,15.6
2023/06/20 07:10:00, 0.3,15.7
2023/06/20 07:20:00, 0.2,16.2
2023/06/20 07:30:00, 0.2,16.7
2023/06/20 07:40:00, 0.3,16.0
2023/06/20 07:50:00, 0.3,17.3
2023/06/20 08:00:00, 0.3,17.8
2023/06/20 08:10:00, 0.3,18.4
2023/06/20 08:20:00, 0.2,18.5
2023/06/20 08:30:00, 0.2,18.6
2023/06/20 08:40:00, 0.3,19.5
2023/06/20 08:50:00, 0.1,20.3
2023/06/20 09:00:00, 0.2,21.0
2023/06/20 09:10:00, 0.1,21.0
2023/06/20 09:20:00, 0.1,21.2
2023/06/20 09:30:00, 0.1,22.6
2023/06/20 09:40:00, 0.2,22.6
2023/06/20 09:50:00, 0.2,23.0
2023/06/20 10:00:00, 0.2,23.5
2023/06/20 10:10:00, 0.2,23.1
2023/06/20 10:20:00, 0.6,23.8
2023/06/20 10:30:00, 1.1,24.2
2023/06/20 10:40:00, 1.2,24.4
2023/06/20 10:50:00, 1.2,25.0
2023/06/20 11:00:00, 0.8,24.8
2023/06/20 11:10:00, 1.1,25.6
2023/06/20 11:20:00, 1.0,25.6
2023/06/20 11:30:00, 0.4,26.0
2023/06/20 11:40:00, 0.2,26.0
2023/06/20 11:50:00, 0.9,26.3
2023/06/20 12:00:00, 1.2,26.5
2023/06/20 12:10:00, 1.3,26.5
2023/06/20 12:20:00, 1.3,26.5
2023/06/20 12:30:00, 1.2,27.1
2023/06/20 12:40:00, 1.4,27.1
2023/06/20 12:50:00, 1.3,27.0
2023/06/20 13:00:00,---,28.1
2023/06/20 13:10:00,---,27.3
2023/06/20 13:20:00, 1.0,27.7
2023/06/20 13:30:00, 1.0,27.2
2023/06/20 13:40:00, 1.0,27.4
2023/06/20 13:50:00, 1.0,26.9
2023/06/20 14:00:00, 0.9,26.7
2023/06/20 14:10:00, 0.2,27.2
2023/06/20 14:20:00, 0.6,27.4
2023/06/20 14:30:00, 0.9,27.8
2023/06/20 14:40:00, 1.1,27.9
2023/06/20 14:50:00, 1.0,27.5
2023/06/20 15:00:00, 0.9,27.6
2023/06/20 15:10:00, 1.1,27.9
2023/06/20 15:20:00, 1.0,28.0
2023/06/20 15:30:00, 1.1,28.0
2023/06/20 15:40:00, 0.9,28.2
2023/06/20 15:50:00, 0.9,28.5
2023/06/20 16:00:00, 0.8,28.3
2023/06/20 16:10:00, 0.4,28.0
2023/06/20 16:20:00, 0.2,26.9
2023/06/20 16:30:00, 0.2,25.9
2023/06/20 16:40:00, 0.2,25.4
2023/06/20 16:50:00, 0.2,25.4
2023/06/20 17:00:00, 0.1,24.2
2023/06/20 17:10:00, 0.1,23.4
2023/06/20 17:20:00, 0.1,22.6
2023/06/20 17:30:00, 0.0,22.7
2023/06/20 17:40:00, 0.0,22.3
2023/06/20 17:50:00, 0.0,21.1
2023/06/20 18:00:00, 0.0,21.0
2023/06/20 18:10:00, 0.0,20.8
2023/06/20 18:20:00, 0.0,20.7
2023/06/20 18:30:00, 0.0,20.5
2023/06/20 18:40:00, 0.1,20.5
2023/06/20 18:50:00, 0.1,19.8
2023/06/20 19:00:00, 0.1,19.8
2023/06/20 19:10:00, 0.2,20.0
2023/06/20 19:20:00, 0.2,19.8
2023/06/20 19:30:00, 0.1,19.4
2023/06/20 19:40:00, 0.1,19.4
2023/06/20 19:50:00, 0.1,18.8
2023/06/20 20:00:00, 0.1,18.7
2023/06/20 20:10:00, 0.1,18.7
2023/06/20 20:20:00, 0.0,18.7
2023/06/20 20:30:00, 0.0,18.4
2023/06/20 20:40:00, 0.0,18.3
2023/06/20 20:50:00, 0.0,18.7
2023/06/20 21:00:00, 0.0,18.0
2023/06/20 21:10:00, 0.1,18.0
2023/06/20 21:20:00, 0.1,18.1
2023/06/20 21:30:00, 0.1,18.1
2023/06/20 21:40:00, 0.1,18.2
2023/06/20 21:50:00, 0.0,18.1
2023/06/20 22:00:00, 0.1,17.9
2023/06/20 22:10:00, 0.1,18.2
2023/06/20 22:20:00, 0.1,18.3
2023/06/20 22:30:00, 0.1,18.4
2023/06/20 22:40:00, 0.1,18.4
2023/06/20 22:50:00, 0.1,18.8
2023/06/20 23:00:00, 0.0,18.4
2023/06/20 23:10:00, 0.1,18.4
2023/06/20 23:20:00, 0.0,18.2
2023/06/20 23:30:00, 0.0,18.2
2023/06/20 23:40:00, 0.0,18.4
2023/06/20 23:50:00, 0.0,18.4
